Location: Lake Crest
(37.6062°N, 88.9176°W)
Time: 05:31:10
(UTC+00:00)

Cosmos 2266 Rocket - Pass Details

Date: 15 December 2019
Orbit: 933 x 1009 km, 82.9° (Epoch: 26 January)

Event Time Altitude Azimuth Distance (km) Brightness Sun altitude
Rises 00:23:28 0° 179° (S) 3,722 7.2 -20.2°
Reaches altitude 10° 00:25:59 10° 177° (S) 2,777 6.5 -20.7°
Maximum altitude 00:32:21 73° 94° (E) 1,051 3.9 -21.9°
Drops below altitude 10° 00:38:43 10° 11° (N) 2,775 6.1 -23.1°
Enters shadow 00:39:01 - 11° (N) 2,884 6.2 -23.2°
